[[{"header":{"parameterUnit":"m.s-1","parameterCategory":1,"la1":30.2991,"la2":30.254,"lo1":-89.0895,"lo2":-89.0444,"dy":0.0017,"dx":0.0017,"nx":28,"ny":28,"refTime":"2023-07-23T03:00:00:Z","depth":0,"parameterNumber":2,"parameterNumberName":"U-component_of_WINDS"},"data":[0,0,0,0,0,0,0,0,0,0,0,0,0,0,0,0,0,0,0,0,0,0,0,0,0,0,0,0,0,0,0,0,0,0,0,0,0,0,0,0,0,0,0,0,0,0,0,0,0,0,0,0,0,0,0,0,0,0,4.0635,4.0635,0,4.0655,4.0656,4.0656,4.0566,4.0564,4.0561,4.0559,4.0578,4.0581,4.0584,0,0,0,0,0,0,0,0,0,0,0,0,0,4.0516,4.0519,4.0635,4.0635,4.0635,4.0655,4.0656,4.0656,4.0567,4.0564,4.056,4.0557,4.0577,4.0581,4.0584,0,0,0,0,0,0,0,0,0,0,0,0,0,4.0556,4.052,4.0635,4.0593,4.059,4.0655,4.0656,4.0656,4.0567,4.0564,4.056,4.0556,4.0576,4.058,4.0585,4.0691,0,0,4.0598,4.06,0,0,0,0,0,0,0,0,4.0553,4.056,4.0599,4.0596,4.0593,4.0604,4.0621,4.0668,4.0568,4.0576,4.0559,4.0554,4.059,4.0593,4.0605,4.0692,4.0692,4.0599,4.0601,4.0603,4.0605,0,0,0,0,0,0,0,4.0551,4.0559,4.0643,4.06,4.0596,4.0573,4.0574,4.0629,4.0605,4.0575,4.0569,4.0572,4.0587,4.0601,4.0605,4.0693,4.0599,4.0603,4.0605,4.0607,4.0865,4.0869,0,0,0,0,0,0,4.0554,4.0557,4.0642,4.0644,4.0563,4.0578,4.058,4.0604,4.0604,4.06,4.0576,4.0568,4.0596,4.06,4.0606,4.0728,4.0603,4.0607,4.061,4.0861,4.0866,4.0871,0,0,0,0,0,0,4.0552,4.0562,4.0641,4.0599,4.0607,4.0585,4.0613,4.0607,4.0621,4.0604,4.0599,4.0595,4.0593,4.0599,4.067,4.0728,4.0609,4.0613,4.0856,4.0863,4.0869,4.0976,0,0,0,0,0,0,4.0549,4.0562,4.0603,4.06,4.061,4.0706,4.0617,4.061,4.0629,4.0619,4.0621,4.0617,4.059,4.0664,4.0674,4.0732,4.0617,4.0851,4.0859,4.0867,4.0967,4.0985,4.1,0,0,0,0,0,4.0545,4.0632,4.0605,4.0616,4.066,4.071,4.0715,4.0683,4.0634,4.0674,4.0663,4.0617,4.072,4.0672,4.0683,4.0743,4.0847,4.0857,4.0866,4.0959,4.0981,4.1,0,0,0,0,0,0,4.0642,4.0631,4.0601,4.069,4.0702,4.0695,4.0744,4.0707,4.0732,4.0722,4.068,4.0682,4.0759,4.0758,4.0704,4.0844,4.0775,4.0787,4.0842,4.0863,4.0879,4.0878,4.0621,0,0,0,0,0,4.0673,4.0716,4.0704,4.0784,4.0791,4.0767,4.0788,4.0762,4.0772,4.0776,4.077,4.0781,4.0816,4.0839,4.0871,4.0967,4.0965,4.1013,4.103,4.1044,4.1054,4.1104,4.1125,4.0902,4.0902,4.0902,0,0,4.0739,4.0739,4.0768,4.0803,4.0809,4.0853,4.0772,4.0822,4.0853,4.0783,4.0849,4.0846,4.0855,4.0939,4.0976,4.094,4.1116,4.1056,4.1067,4.107,4.1116,4.1137,4.1156,4.0908,4.0907,4.0906,0,0,4.0881,4.0886,4.0952,4.096,4.097,4.0953,4.0969,4.0968,4.0963,4.1029,4.0977,4.1014,4.1075,4.1083,4.1096,4.1241,4.1199,4.1253,4.1339,4.1388,4.1406,4.1421,4.1472,4.1491,4.1263,4.1264,4.1264,0,4.0962,4.1026,4.0991,4.1044,4.1061,4.1,4.1066,4.1075,4.1095,4.1107,4.1068,4.1142,4.1144,4.1228,4.1264,4.1277,4.1293,4.1252,4.1406,4.1421,4.1435,4.1483,4.1502,4.127,4.1269,4.1269,4.1268,0,4.1124,4.117,4.1222,4.1243,4.1265,4.1325,4.1298,4.1325,4.1297,4.1284,4.1352,4.1352,4.1382,4.14,4.1373,4.148,4.1458,4.1414,4.1342,4.1463,4.1507,4.1525,4.1279,4.1277,4.1275,4.1273,0,0,4.1328,4.1328,4.1347,4.1356,4.1362,4.1396,4.1453,4.1482,4.1505,4.1521,4.1567,4.162,4.1578,4.1592,4.1566,4.1609,4.1722,4.1558,4.1558,4.1588,4.1839,4.1872,4.1894,4.1695,4.1699,4.1701,4.1838,0,4.1466,4.1563,4.1533,4.163,4.1671,4.1614,4.1663,4.1672,4.1661,4.1694,4.1682,4.172,4.1663,4.1671,4.1711,4.17,4.1772,4.169,4.1736,4.1738,4.1734,4.1917,4.1952,4.2081,4.1855,4.1858,4.186,0,4.1641,4.1663,4.1765,4.1764,4.178,4.1824,4.1848,4.1881,4.1889,4.1879,4.1895,4.1859,4.1914,4.1844,4.1918,4.1863,4.188,4.1877,4.1881,4.1883,4.1806,4.1923,4.2121,4.214,4.1887,4.1885,4.1883,0,4.1777,4.1833,4.1901,4.191,4.191,4.1943,4.1945,4.1949,4.1969,4.1989,4.2001,4.2028,4.2043,4.2064,4.2037,4.1989,4.2115,4.2043,4.2106,4.2107,4.2134,4.2133,4.2337,4.2148,4.2148,4.2147,4.2147,0,4.1934,4.1999,4.1962,4.2004,4.2074,4.2038,4.2108,4.2103,4.2108,4.2146,4.2099,4.2136,4.2098,4.2132,4.2111,4.2175,4.2182,4.2174,4.2168,4.2178,4.2179,4.2188,4.2177,4.2153,4.2151,4.215,4.215,0,4.2099,4.2077,4.2147,4.2141,4.2141,4.2193,4.2188,4.2226,4.2212,4.2262,4.2272,4.2251,4.2288,4.2263,4.2301,4.2286,4.2369,4.2351,4.2367,4.2361,4.2426,4.2419,4.2642,4.2668,4.2464,4.2466,4.2467,0,4.22,4.2248,4.2248,4.227,4.2275,4.2313,4.2332,4.2298,4.232,4.2333,4.237,4.2403,4.2427,4.249,4.2477,4.2505,4.2486,4.2562,4.249,4.2499,4.2486,4.2483,4.2487,4.2577,4.2579,4.2581,4.2583,0,4.2381,4.2368,4.2398,4.2424,4.2449,4.2468,4.2483,4.2504,4.247,4.2497,4.2535,4.2554,4.2592,4.2625,4.2649,4.2649,4.261,4.2606,4.2622,4.2632,4.2638,4.2634,4.2405,4.26,4.2599,4.2597,4.2596,4.2596,4.2516,4.2555,4.2561,4.2596,4.2604,4.2619,4.2654,4.2644,4.2675,4.2704,4.2682,4.2727,4.2733,4.276,4.2766,4.28,4.2769,4.2792,4.2798,4.2804,4.2812,4.2634,4.2804,4.2804,4.2803,4.2803,4.2802,0,4.2693,4.2694,4.2727,4.2749,4.2776,4.2738,4.2752,4.2777,4.2817,4.2827,4.2852,4.2895,4.2926,4.2917,4.2945,4.2974,4.2956,4.2982,4.2979,4.2979,4.2839,4.2822,4.2996,4.2996,4.2996,4.2996,4.2995,4.2995,4.2789,4.2853,4.2841,4.2908,4.2908,4.2952,4.2963,4.2976,4.2984,4.3034,4.306,4.3053,4.3055,4.3083,4.311,4.3106,4.3118,4.315,4.314,4.3009,4.299,4.2971,4.2955,4.3153,4.3154,4.3277,4.3278,4.3279]},{"header":{"parameterUnit":"m.s-1","parameterCategory":1,"la1":30.2991,"la2":30.254,"lo1":-89.0895,"lo2":-89.0444,"dy":0.0017,"dx":0.0017,"nx":28,"ny":28,"refTime":"2023-07-23T03:00:00:Z","depth":0,"parameterNumber":3,"parameterNumberName":"V-component_of_WINDS"},"data":[0,0,0,0,0,0,0,0,0,0,0,0,0,0,0,0,0,0,0,0,0,0,0,0,0,0,0,0,0,0,0,0,0,0,0,0,0,0,0,0,0,0,0,0,0,0,0,0,0,0,0,0,0,0,0,0,0,0,-0.9827,-0.9825,0,-0.9703,-0.9702,-0.97,-0.9645,-0.9646,-0.9646,-0.9646,-0.9511,-0.9507,-0.9503,0,0,0,0,0,0,0,0,0,0,0,0,0,-1.0006,-1.0003,-0.9827,-0.9825,-0.9824,-0.9703,-0.9702,-0.97,-0.9645,-0.9646,-0.9646,-0.9646,-0.9512,-0.9508,-0.9503,0,0,0,0,0,0,0,0,0,0,0,0,0,-0.991,-1.0003,-0.9827,-0.9782,-0.9777,-0.9704,-0.9701,-0.9699,-0.9645,-0.9646,-0.9646,-0.9646,-0.9513,-0.9508,-0.9502,-0.9462,0,0,-0.9485,-0.9483,0,0,0,0,0,0,0,0,-0.9916,-0.9903,-0.979,-0.9785,-0.9779,-0.969,-0.9715,-0.9619,-0.9645,-0.9695,-0.9646,-0.9646,-0.957,-0.9559,-0.9535,-0.9455,-0.945,-0.9485,-0.9481,-0.9479,-0.9477,0,0,0,0,0,0,0,-0.9922,-0.9908,-0.9777,-0.9789,-0.9782,-0.9765,-0.9752,-0.9697,-0.9632,-0.9691,-0.9687,-0.9673,-0.9567,-0.9541,-0.9532,-0.9448,-0.9485,-0.948,-0.9476,-0.9474,-0.9326,-0.9325,0,0,0,0,0,0,-0.9938,-0.9914,-0.9781,-0.9774,-0.985,-0.9762,-0.9747,-0.9718,-0.9632,-0.962,-0.9673,-0.9671,-0.955,-0.9538,-0.9527,-0.9472,-0.9479,-0.9473,-0.947,-0.9326,-0.9326,-0.9325,0,0,0,0,0,0,-0.9942,-0.9926,-0.9786,-0.9843,-0.9824,-0.9758,-0.9727,-0.9716,-0.969,-0.9619,-0.9606,-0.9659,-0.955,-0.9535,-0.9478,-0.9467,-0.9471,-0.9466,-0.9327,-0.9326,-0.9325,-0.9364,0,0,0,0,0,0,-0.9947,-0.9928,-0.9914,-0.9843,-0.9821,-0.9743,-0.9726,-0.9713,-0.9681,-0.9678,-0.9603,-0.9591,-0.9549,-0.9487,-0.9473,-0.9459,-0.9461,-0.9328,-0.9327,-0.9326,-0.9364,-0.9365,-0.9366,0,0,0,0,0,-0.9954,-0.9929,-0.9914,-0.9898,-0.9803,-0.9743,-0.973,-0.9685,-0.9681,-0.9665,-0.9619,-0.9593,-0.9471,-0.9482,-0.9465,-0.945,-0.9328,-0.9327,-0.9326,-0.9363,-0.9365,-0.9366,0,0,0,0,0,0,-0.9997,-0.9919,-0.9901,-0.9853,-0.9805,-0.9734,-0.9712,-0.9688,-0.9638,-0.9637,-0.958,-0.9564,-0.9512,-0.9475,-0.9489,-0.9405,-0.9397,-0.9392,-0.9431,-0.9432,-0.9433,-0.9443,-0.9457,0,0,0,0,0,-1.0002,-0.9962,-0.9894,-0.9858,-0.9835,-0.9778,-0.975,-0.972,-0.9667,-0.9646,-0.9596,-0.9543,-0.9492,-0.946,-0.941,-0.9358,-0.934,-0.9339,-0.934,-0.9342,-0.9338,-0.9306,-0.9305,-0.9321,-0.9321,-0.9321,0,0,-1.0009,-0.9962,-0.994,-0.9866,-0.9825,-0.9783,-0.9761,-0.9718,-0.9685,-0.9638,-0.9583,-0.9544,-0.9481,-0.9427,-0.94,-0.9394,-0.9329,-0.934,-0.9342,-0.9337,-0.9305,-0.9303,-0.9302,-0.932,-0.932,-0.9321,0,0,-1.0002,-0.9963,-0.9928,-0.9889,-0.9829,-0.979,-0.9782,-0.9714,-0.9687,-0.9631,-0.9595,-0.9553,-0.9468,-0.9425,-0.9391,-0.9367,-0.934,-0.9351,-0.9357,-0.9327,-0.9326,-0.9324,-0.9314,-0.9311,-0.9348,-0.9348,-0.9348,0,-1.0019,-0.9957,-0.9913,-0.9871,-0.9839,-0.9797,-0.976,-0.9722,-0.9647,-0.9625,-0.962,-0.9511,-0.9466,-0.94,-0.9394,-0.9369,-0.9356,-0.936,-0.933,-0.9328,-0.9326,-0.9316,-0.9312,-0.935,-0.935,-0.935,-0.9349,0,-0.9979,-0.9937,-0.9915,-0.9847,-0.9812,-0.9773,-0.972,-0.9689,-0.9661,-0.9623,-0.9565,-0.9509,-0.9447,-0.9429,-0.94,-0.9358,-0.9356,-0.9341,-0.9332,-0.9327,-0.9316,-0.9312,-0.9352,-0.9352,-0.9351,-0.9351,0,0,-0.9996,-0.9905,-0.9898,-0.9866,-0.9796,-0.9761,-0.9718,-0.9659,-0.9633,-0.9582,-0.9544,-0.9472,-0.9458,-0.942,-0.9386,-0.936,-0.9342,-0.9347,-0.9345,-0.9348,-0.9291,-0.9302,-0.9299,-0.9325,-0.9324,-0.9323,-0.9296,0,-0.9979,-0.9905,-0.9864,-0.9805,-0.9764,-0.9723,-0.9686,-0.9637,-0.96,-0.9556,-0.9513,-0.9464,-0.9449,-0.9426,-0.9398,-0.9351,-0.933,-0.9352,-0.9285,-0.9284,-0.9302,-0.9293,-0.9305,-0.9282,-0.9291,-0.929,-0.929,0,-0.9949,-0.9903,-0.9841,-0.9776,-0.9756,-0.9724,-0.9666,-0.9627,-0.9569,-0.9543,-0.9502,-0.9468,-0.9418,-0.9413,-0.9343,-0.9359,-0.9328,-0.9301,-0.9299,-0.929,-0.9286,-0.9283,-0.9274,-0.927,-0.9283,-0.9284,-0.9284,0,-0.9967,-0.9888,-0.9841,-0.9815,-0.9737,-0.9715,-0.9681,-0.9625,-0.9592,-0.954,-0.9517,-0.946,-0.9428,-0.9382,-0.9332,-0.9334,-0.9266,-0.9257,-0.9241,-0.9242,-0.9228,-0.923,-0.9213,-0.921,-0.921,-0.921,-0.921,0,-0.9952,-0.9916,-0.9848,-0.9819,-0.9776,-0.9727,-0.9685,-0.9647,-0.9597,-0.9557,-0.9517,-0.948,-0.9418,-0.9372,-0.9332,-0.9279,-0.9265,-0.924,-0.923,-0.9244,-0.9247,-0.9223,-0.9223,-0.9209,-0.921,-0.921,-0.921,0,-0.9964,-0.9918,-0.9864,-0.9795,-0.9777,-0.9748,-0.9688,-0.9656,-0.9617,-0.9567,-0.9552,-0.9489,-0.9433,-0.938,-0.9304,-0.9277,-0.9223,-0.921,-0.9244,-0.9238,-0.9225,-0.9227,-0.9191,-0.9184,-0.9187,-0.9187,-0.9188,0,-0.9958,-0.9929,-0.9858,-0.9831,-0.9799,-0.9754,-0.9721,-0.967,-0.9636,-0.9569,-0.9545,-0.9487,-0.9437,-0.9349,-0.9294,-0.9236,-0.922,-0.9212,-0.9211,-0.9225,-0.9219,-0.9221,-0.9217,-0.9213,-0.9213,-0.9214,-0.9214,0,-0.9951,-0.9929,-0.9885,-0.9831,-0.9794,-0.9748,-0.9702,-0.968,-0.962,-0.9584,-0.9528,-0.949,-0.9413,-0.9355,-0.929,-0.9251,-0.9221,-0.9215,-0.9207,-0.9221,-0.9241,-0.9229,-0.9246,-0.9215,-0.9215,-0.9215,-0.9215,-0.9215,-0.9952,-0.9925,-0.9871,-0.9822,-0.9782,-0.9739,-0.9706,-0.9663,-0.9617,-0.9553,-0.9525,-0.9468,-0.9408,-0.9319,-0.928,-0.9232,-0.9225,-0.9216,-0.9213,-0.9211,-0.9213,-0.925,-0.922,-0.922,-0.922,-0.922,-0.922,0,-0.9943,-0.9906,-0.9862,-0.9799,-0.9759,-0.9738,-0.9685,-0.9652,-0.9604,-0.9553,-0.9506,-0.944,-0.9383,-0.9324,-0.9263,-0.9236,-0.9221,-0.9221,-0.9222,-0.9214,-0.9224,-0.9236,-0.9235,-0.9235,-0.9235,-0.9235,-0.9235,-0.9235,-0.9933,-0.9885,-0.9857,-0.9788,-0.975,-0.9696,-0.9667,-0.9626,-0.9586,-0.9515,-0.9469,-0.9432,-0.9376,-0.9311,-0.9257,-0.924,-0.9219,-0.9224,-0.9203,-0.9214,-0.9213,-0.9212,-0.9223,-0.922,-0.922,-0.9197,-0.9197,-0.9197]}]]